Find Starlink 32384

NORAD ID: 62146 Int'l Des: 2024-224 Owner: SPXS Country: US Constellation: starlink operational
LEOCIRCULAR

当前视图

正在加载3D地球...

About Starlink 32384

Starlink 32384 (NORAD 62146) is a starlink constellation satellite (v2 mini) launched Nov 30, 2024 by SPXS of US. It operates in LEO, CIRCULAR orbit with a mass of 730.00 kg.

即将过境

Passes for default location (London). Set your location on the main map for personalized predictions.

高度历史

Loading altitude history...

两行轨道根数

1 62146U 24224H 26264.03130066 .00006082 00000-0 23033-3 0 9992
2 62146 43.0027 135.0359 0000932 345.7608 14.3217 15.27582668102359
Epoch: Sep 21, 2026 • Age: 10 hours

当前状态

高度 486.9 km
远地点 / 近地点 N/A
速度 7.62 km/s
星下点 -16.43°S, 164.74°E
发射日期 Nov 30, 2024
运行时间 1.8 years
类型 internet

技术详情

分类 Payload
质量 730.00 kg
干质量 700.00 kg
长度 0.30 m
跨度 29.00 m
形状 ? Box + pan
制造商 SPXS
平台类型 Starlink V2M
阶段状态 In Orbit
所有者/国家 SPXS/US

Most Searched